Weather History for Dayton Wright, OH

Change the Weather History Date:

Wednesday, October 16, 2013

  Actual Average (KFFO) Record (KFFO)
Temperature  
Mean Temperature 59 °F -  
Max Temperature 66 °F 61 °F 78 °F (1999)
Min Temperature 50 °F 40 °F 33 °F (2012)
Degree Days  
Heating Degree Days 6    
Growing Degree Days 9 (Base 50)    
Moisture  
Dew Point 57 °F    
Average Humidity 84    
Maximum Humidity 100    
Minimum Humidity 52    
Precipitation  
Precipitation 0.14 in - - ()
Sea Level Pressure  
Sea Level Pressure 29.92 in    
Wind  
Wind Speed 7 mph (SW)    
Max Wind Speed 12 mph    
Max Gust Speed 17 mph    
Visibility 7 miles    
Events Rain    
Averages and records for this station are not official NWS values.
T = Trace of Precipitation, MM = Missing Value Source: NWS Daily Summary

Daily Weather History Graph

Daily Weather History Graph

Search for Another Location

Airport:

Trip Planner

Search our weather history database for the weather conditions in past years. The results will help you decide how hot, cold, wet, or windy it might be!

Date:

Astronomy

Oct. 16, 2013 Rise Set
Actual Time 7:48 AM EDT 6:55 PM EDT
Civil Twilight 7:21 AM EDT 7:23 PM EDT
Nautical Twilight 6:49 AM EDT 7:54 PM EDT
Astronomical Twilight 6:18 AM EDT 8:25 PM EDT
Moon 5:34 PM EDT (10/16) 5:15 AM EDT (10/16)
Length of Visible Light 12h 01m
Length of Day
11h 07m
Waxing Gibbous, 94% of the Moon is Illuminated
Oct 16
Waxing Gibbous
Oct 18
Full
Oct 26
Last Quarter
Nov 3
New
Nov 10
First Quarter

Hourly Weather History & Observations

Time (EDT) Temp. Dew Point Humidity Pressure Visibility Wind Dir Wind Speed Gust Speed Precip Events Conditions
12:44 AM 66.2 °F 59.0 °F 78% 29.96 in 10.0 mi SW 6.9 mph - N/A   Overcast
12:53 AM 66.0 °F 60.1 °F 81% 29.94 in 10.0 mi SW 6.9 mph - N/A   Overcast
1:39 AM 64.4 °F 60.8 °F 88% 29.94 in 10.0 mi SSW 5.8 mph - N/A   Overcast
1:53 AM 66.0 °F 60.1 °F 81% 29.94 in 10.0 mi SW 4.6 mph - N/A   Overcast
2:24 AM 64.4 °F 60.8 °F 88% 29.94 in 10.0 mi SSW 5.8 mph - N/A   Overcast
2:53 AM 64.0 °F 60.1 °F 87% 29.92 in 10.0 mi SSW 6.9 mph - N/A   Mostly Cloudy
3:12 AM 64.4 °F 60.8 °F 88% 29.93 in 10.0 mi SSW 5.8 mph - N/A   Scattered Clouds
3:50 AM 64.4 °F 60.8 °F 88% 29.91 in 10.0 mi South 6.9 mph - N/A   Mostly Cloudy
3:53 AM 64.0 °F 60.1 °F 87% 29.90 in 10.0 mi South 6.9 mph - N/A   Overcast
4:53 AM 64.0 °F 60.1 °F 87% 29.89 in 10.0 mi South 6.9 mph - N/A   Overcast
5:53 AM 63.0 °F 61.0 °F 93% 29.89 in 5.0 mi South 6.9 mph - 0.04 in Rain Light Rain
6:09 AM 62.6 °F 60.8 °F 94% 29.90 in 3.0 mi SSW 6.9 mph - 0.03 in Rain Light Rain
6:53 AM 63.0 °F 61.0 °F 93% 29.90 in 3.0 mi SSW 6.9 mph - 0.06 in   Overcast
7:00 AM 62.6 °F 60.8 °F 94% 29.91 in 3.0 mi SSW 6.9 mph - N/A   Overcast
7:50 AM 62.6 °F 60.8 °F 94% 29.91 in 7.0 mi SW 8.1 mph - N/A   Overcast
7:53 AM 63.0 °F 61.0 °F 93% 29.90 in 6.0 mi SSW 6.9 mph - N/A   Overcast
8:53 AM 63.0 °F 61.0 °F 93% 29.91 in 4.0 mi SW 5.8 mph - N/A   Overcast
9:53 AM 63.0 °F 62.1 °F 97% 29.91 in 4.0 mi SSW 6.9 mph - N/A   Overcast
10:07 AM 62.6 °F 62.6 °F 100% 29.92 in 1.8 mi SSW 5.8 mph - N/A   Overcast
10:16 AM 64.4 °F 62.6 °F 94% 29.92 in 2.5 mi SSW 6.9 mph - N/A   Overcast
10:25 AM 64.4 °F 62.6 °F 94% 29.92 in 3.0 mi SW 5.8 mph - N/A   Overcast
10:37 AM 64.4 °F 62.6 °F 94% 29.92 in 2.5 mi SSW 6.9 mph - N/A   Overcast
10:53 AM 62.1 °F 60.1 °F 93% 29.91 in 4.0 mi West 8.1 mph - N/A   Overcast
11:12 AM 60.8 °F 59.0 °F 94% 29.93 in 7.0 mi WNW 10.4 mph - N/A   Overcast
11:53 AM 59.0 °F 57.0 °F 93% 29.93 in 3.0 mi West 4.6 mph - 0.01 in Rain Light Rain
11:59 AM 59.0 °F 57.2 °F 94% 29.93 in 1.8 mi West 4.6 mph - 0.00 in Rain Light Rain
12:08 PM 59.0 °F 57.2 °F 94% 29.93 in 3.0 mi WSW 3.5 mph - 0.00 in Rain Light Rain
12:30 PM 59.0 °F 57.2 °F 94% 29.94 in 2.0 mi West 6.9 mph - 0.02 in Rain Light Rain
12:38 PM 59.0 °F 55.4 °F 88% 29.94 in 3.0 mi West 8.1 mph - 0.02 in Rain Light Rain
12:53 PM 59.0 °F 57.0 °F 93% 29.92 in 7.0 mi WSW 5.8 mph - 0.03 in Rain Light Rain
1:12 PM 60.8 °F 57.2 °F 88% 29.92 in 9.0 mi WSW 5.8 mph - 0.00 in   Overcast
1:53 PM 63.0 °F 57.0 °F 81% 29.90 in 10.0 mi SW 5.8 mph - 0.00 in   Mostly Cloudy
2:07 PM 64.4 °F 57.2 °F 77% 29.90 in 10.0 mi WSW 6.9 mph - N/A   Mostly Cloudy
2:53 PM 64.0 °F 55.0 °F 73% 29.88 in 10.0 mi SW 8.1 mph - N/A   Overcast
3:53 PM 66.9 °F 48.9 °F 52% 29.89 in 10.0 mi West 10.4 mph 17.3 mph N/A   Scattered Clouds
4:53 PM 64.9 °F 46.9 °F 52% 29.89 in 10.0 mi West 11.5 mph - N/A   Mostly Cloudy
5:53 PM 64.0 °F 48.9 °F 58% 29.89 in 10.0 mi WSW 8.1 mph - N/A   Overcast
6:53 PM 61.0 °F 46.0 °F 58% 29.91 in 10.0 mi West 6.9 mph - N/A   Mostly Cloudy
7:53 PM 59.0 °F 45.0 °F 60% 29.92 in 10.0 mi West 4.6 mph - N/A   Mostly Cloudy
8:53 PM 55.9 °F 44.1 °F 64% 29.94 in 10.0 mi West 3.5 mph - N/A   Clear
9:53 PM 54.0 °F 43.0 °F 66% 29.95 in 10.0 mi WNW 3.5 mph - N/A   Clear
10:53 PM 52.0 °F 43.0 °F 71% 29.96 in 10.0 mi Calm Calm - N/A   Clear
11:53 PM 50.0 °F 43.0 °F 77% 29.96 in 10.0 mi North 6.9 mph - N/A   Clear